Regional Weather Roundup
Issued by NWS

Home | Current Version | Previous Version | Graphics & Text | Print | Product List | Glossary On
Versions: 1 2 3 4 5 6 7 8 9 10 11 12 13 14 15 16 17 18 19 20 21 22 23 24 25 26 27 28 29 30 31 32 33 34 35 36 37 38 39 40 41 42 43 44 45 46 47 48 49 50
000
ASUS45 KABQ 191701
RWRNM
WEATHER ROUNDUP FOR NEW MEXICO
NATIONAL WEATHER SERVICE ALBUQUERQUE NM
1100 AM MDT SAT APR 19 2014

NOTE: "FAIR" MEANS FEW OR NO CLOUDS BELOW 12,000 FEET AGL WITH NO
       SIGNIFICANT WEATHER OR OBSTRUCTIONS TO VISION.

      THIS PRODUCT IS RELEASED AS TWO VERSIONS.  ONE VERSION NEAR
      THE TOP OF THE HOUR CONTAINING PRELIMINARY DATA FROM ALBUQUERQUE
      AND OTHER STATIONS.  A FINAL VERSION WITH ADDITIONAL DATA IS
      ISSUED ABOUT 10 MINUTES AFTER THE HOUR.

NMZ501-503-504-510>518-191800-
NORTHWEST PLATEAU/NORTHCENTRAL MOUNTAINS

CITY           SKY/WX    TMP DP  RH WIND       PRES   REMARKS
FARMINGTON     SUNNY     61  37  41 VRB6      30.14R
LOS ALAMOS     CLOUDY    56  36  46 E5        30.20S
SANTA FE       PTSUNNY   59  35  40 VRB3      30.16S
TAOS           MOSUNNY   55  34  44 CALM      30.22S
ANGEL FIRE     FAIR      51  33  50 W17G24    30.24R

$$
NMZ402-403-502-505>509-191800-
WESTCENTRAL MOUNTAINS/SOUTHWEST MOUNTAINS

CITY           SKY/WX    TMP DP  RH WIND       PRES   REMARKS
GALLUP         PTSUNNY   57  35  43 SW5       30.17R
GRANTS         CLOUDY    53  36  52 SE8       30.20S
SILVER CITY    CLOUDY    54  46  76 NE13      30.14F

$$
NMZ407-409-411-412-191800-
SOUTHERN DESERTS

CITY           SKY/WX    TMP DP  RH WIND       PRES   REMARKS
LORDSBURG      FAIR      63  43  48 CALM      30.08R
DEMING         PTSUNNY   61  50  67 VRB5      30.10R
LAS CRUCES     PTSUNNY   64  45  50 N10G23    30.12F
HOLLOMAN AFB   CLOUDY    61  53  75 CALM      30.12R
ALAMOGORDO     CLOUDY    61  50  67 N5        30.13R
T OR C         LGT RAIN  52  47  83 W5        30.18R

$$
NMZ519>523-191800-
CENTRAL VALLEYS/CENTRAL HIGHLANDS

CITY           SKY/WX    TMP DP  RH WIND       PRES   REMARKS
ALBUQUERQUE    CLOUDY    53  44  71 E9        30.15F
DOUBLE EAGLE   PTSUNNY   54  41  62 SE12      30.18
MORIARTY ARPT  FAIR      55  43  65 SW16      30.17F
CLINES CORNERS CLOUDY    49  42  77 SW20      30.19R
BELEN          FAIR      54  48  82 CALM      30.16S
SOCORRO        NOT AVBL

$$
NMZ524>526-539-540-191800-
SOUTHCENTRAL MOUNTAINS

CITY           SKY/WX    TMP DP  RH WIND       PRES   REMARKS
RUIDOSO        NOT AVBL

$$
NMZ527>531-191800-
NORTHEAST HIGHLANDS/NORTHEAST PLAINS

CITY           SKY/WX    TMP DP  RH WIND       PRES   REMARKS
LAS VEGAS      SUNNY     63  30  28 SW18G28   30.14F
RATON          SUNNY     66  32  28 S18       30.08S
CLAYTON        SUNNY     71  39  31 SW18G24   30.04F

$$
NMZ532>537-191800-
EASTCENTRAL PLAINS

CITY           SKY/WX    TMP DP  RH WIND       PRES   REMARKS
TUCUMCARI      SUNNY     73  45  36 MISG      30.05R
CANNON AFB     MOSUNNY   68  47  47 S16       30.11R
CLOVIS AIRPORT SUNNY     68  48  49 S15       30.14R

$$
NMZ028-029-538-191800-
SOUTHEAST PLAINS

CITY           SKY/WX    TMP DP  RH WIND       PRES   REMARKS
ROSWELL        LGT RAIN  56  54  93 S7        30.12R FOG
ARTESIA        LGT RAIN  55  55 100 SE8       30.08F
CARLSBAD       CLOUDY    60  55  83 NE7       30.08R
HOBBS          PTSUNNY   64  54  68 S10       30.11R


$$



USA.gov is the U.S. government's official web portal to all federal, state and local government web resources and services.